Regional Weather Roundup
Issued by NWS

Home | Current Version | Previous Version | Text Only | Print | Product List | Glossary On
Versions: 1 2 3 4 5 6 7 8 9 10 11 12 13 14 15 16 17 18 19 20 21 22 23 24 25 26 27 28
000
ASCA42 TJSJ 281110
RWRPR
PUERTO RICO/U.S. VIRGIN ISLANDS HOURLY WEATHER ROUNDUP
NATIONAL WEATHER SERVICE SAN JUAN PR
700 AM AST TUE FEB 28 2017

PRZ001>002-007>008-010-281200-
PUERTO RICO

CITY           SKY/WX    TMP DP  RH WIND       PRES   REMARKS
SAN JUAN LMM   PTCLDY    75  72  88 SE5       30.10R
AGUADILLA      CLOUDY    70  66  88 E8        30.11
CEIBA          PTCLDY    79  70  73 NE9       30.12R
$$

VIZ001>002-281200-
U.S. VIRGIN ISLANDS

CITY           SKY/WX    TMP DP  RH WIND       PRES   REMARKS
CHARLOTTE AMA  PTCLDY    75  70  83 E8        30.08R
CHRISTIANSTED  PTCLDY    75  70  83 NE9       30.08R
$$

HOURLY WEATHER ROUNDUP FOR THE NEWS MEDIA

CITY           SKY/WX    TMP DP  RH WIND       PRES   REMARKS
ORLANDO        CLEAR     67  66  97 CALM      30.25R FOG
NEW YORK       CLOUDY    43  41  93 CALM      30.37S
NEWARK         CLOUDY    47  34  60 CALM      30.35S
CHICAGO        CLOUDY    50  45  83 S16G25    29.85S
HARTFORD       CLOUDY    39  36  89 CALM      30.41R
BOSTON         CLOUDY    40  33  76 SW8       30.41R WCI  34
DALLAS         CLOUDY    70  64  81 S12G20    29.87S
PHILADELPHIA   CLOUDY    45  36  70 E3        30.34S
LOS ANGELES    PTCLDY    53  37  54 NW7       29.91R
WASHINGTON DC  CLOUDY    40  34  79 CALM      30.30F



USA.gov is the U.S. government's official web portal to all federal, state and local government web resources and services.